Voltar ao catálogo

STARLINK-4758

AtivoComunicaçõesVLEO
NORAD 53820·PAYLOAD·🇺🇸 United States

Lançado Sep 19, 2022 de Cape Canaveral Space Force Station

Loading…

Próximas Passagens (próximas 24 horas)

TLE

AtualizadoSource: CelesTrak SupGP

Época: Sep 14, 2026, 21:50 UTC

1 53820C 22114C   26257.91020833 -.00017553  00000+0 -50273-3 0  2575
2 53820  53.1590 166.2429 0003165 110.0190  67.1297 15.35370814    10

Acompanhe STARLINK-4758 em tempo real com AllMySat

Download on the App Store